Location: Lake Sonoma
(38.7200°N, 123.0564°W)
Time: 01:47:57
(UTC-07:00)

ISS - Visible Passes

Search period start: 24 July 2016 00:00
Search period end: 03 August 2016 00:00
Orbit: 401 x 404 km, 51.6° (Epoch: 24 July)

Date Brightness Start Highest point End Pass type
(mag) Time Alt. Az. Time Alt. Az. Time Alt. Az.
24 Jul 0.2 03:31:03 10° N 03:31:56 11° NNE 03:32:49 10° NNE visible
24 Jul -1.5 05:06:06 10° NW 05:09:08 34° NNE 05:12:09 10° E visible
25 Jul -0.6 04:13:27 10° NNW 04:16:04 22° NNE 04:18:40 10° E visible
25 Jul -3.3 22:27:37 10° SW 22:30:51 77° NW 22:32:10 33° NE visible
26 Jul0.200:10:23NNE00:10:23NNE00:05:19WNWvisible
26 Jul -0.1 03:20:53 10° NNW 03:22:54 15° NNE 03:24:54 10° ENE visible
26 Jul -3.3 04:56:30 10° NW 04:59:47 80° NE 05:03:01 10° SE visible
26 Jul -3.2 21:34:49 10° SSW 21:37:58 49° SE 21:41:08 10° ENE visible
26 Jul -0.7 23:12:00 10° WNW 23:14:34 21° NNW 23:17:09 10° NNE visible
27 Jul 0.2 02:28:29 10° N 02:29:40 11° NNE 02:30:51 10° NE visible
27 Jul -2.0 04:03:41 10° NW 04:06:48 40° NNE 04:09:54 10° ESE visible
27 Jul -1.5 22:18:29 10° W 22:21:29 33° NNW 22:24:30 10° NE visible
27 Jul 0.3 23:57:53 10° NNW 23:58:42 11° NNW 23:59:30 10° N visible
28 Jul -0.9 03:14:23 23° NE 03:14:23 23° NE 03:16:29 10° E visible
28 Jul -2.9 04:47:29 12° WNW 04:50:15 38° SW 04:53:18 10° SSE visible
28 Jul -2.8 21:25:16 10° WSW 21:28:29 63° NW 21:31:44 10° NE visible
28 Jul 0.0 23:03:41 10° NW 23:05:26 14° NNW 23:07:13 10° NNE visible
29 Jul -0.4 22:09:49 10° WNW 22:12:15 19° NNW 22:14:41 10° NNE visible
30 Jul -1.2 21:16:13 10° W 21:19:08 29° NNW 21:22:03 10° NNE visible
30 Jul 0.2 22:56:06 10° NNW 22:56:25 10° N 22:56:43 10° N visible
31 Jul -0.1 22:01:35 10° NW 22:03:08 13° NNW 22:04:40 10° NNE visible
01 Aug -0.4 21:07:38 10° WNW 21:09:54 17° NNW 21:12:10 10° NNE visible
02 Aug 0.0 23:31:08 10° N 23:31:46 10° NNE 23:31:51 10° NNE visible
